Regional Weather Roundup
Issued by NWS

Home | Current Version | Previous Version | Graphics & Text | Print | Product List | Glossary On
Versions: 1 2 3 4 5 6 7 8 9 10 11 12 13 14 15 16 17 18 19 20 21 22 23 24 25 26 27 28 29 30 31 32 33 34 35 36 37 38 39 40 41 42 43 44 45 46 47 48 49 50
000
ASUS43 KDTX 280810
RWRMI
MICHIGAN HOURLY REGIONAL WEATHER ROUNDUP
NATIONAL WEATHER SERVICE DETROIT/PONTIAC MI
300 AM EST SAT FEB 28 2015

NOTE: "FAIR" INDICATES FEW OR NO CLOUDS BELOW 12,000 FEET WITH NO
SIGNIFICANT WEATHER AND/OR OBSTRUCTION TO VISIBILITY.

MIZ047>049-052>055-059>063-066>070-074>076-081>083-280900-
SOUTHEAST LOWER MICHIGAN

CITY           SKY/WX    TMP DP  RH WIND       PRES   REMARKS
ADRIAN         PTCLDY    -6 -11  79 CALM      30.68R
ALMA           CLEAR      4  -1  77 SW5       30.63R
ANN ARBOR      CLEAR     -7 -13  75 W3        30.67R
BAD AXE        CLEAR     -1  -4  86 SW5       30.62S
DETROIT CITY   CLEAR      9  -2  61 SW6       30.69R
DETROIT        CLEAR      4  -4  69 S3        30.69R
FLINT          CLEAR      6  -3  66 SW7       30.65R
GROSSE ILE     CLEAR      9  -2  61 SW3       30.68S
HILLSDALE      PTCLDY     0  -5  81 CALM      30.63R
HOWELL         CLEAR      3  -3  75 S3        30.63S

CITY           SKY/WX    TMP DP  RH WIND       PRES   REMARKS
JACKSON        CLEAR      2  -4  76 SW6       30.64S
LAMBERTVILLE   PTCLDY    -2  -9  71 CALM      30.70R
LANSING        CLEAR      5  -4  66 SW9       30.65R
LAPEER         NOT AVBL
MASON          CLEAR      0  -5  78 CALM      30.64S
MONROE         CLEAR      0  -6  78 CALM      30.67S
MT. CLEMENS    CLEAR      7  -1  67 SW3       30.66R
PONTIAC        CLEAR     -1  -7  75 CALM      30.63R
PORT HOPE        N/A      4  -3  73 SW7       30.60F
PORT HURON     CLEAR    -11 -15  84 CALM      30.67S
TRI CITIES     CLEAR      7   0  73 S8        30.64R
YPSILANTI      CLEAR      3  -6  66 SE6       30.68R
$$
MIZ043>046-050>051-056>058-064>065-071>073-077>080-280900-
SOUTHWEST LOWER MICHIGAN

CITY           SKY/WX    TMP DP  RH WIND       PRES   REMARKS
BATTLE CREEK   CLEAR      2  -6  69 SW5       30.65R
BENTON HARBOR  PTCLDY     0  -5  79 S3        30.68R
BIG RAPIDS     MOCLDY    -2  -5  88 CALM      30.57S
COLDWATER        N/A     -5  -9  82 CALM      30.66R
HOLLAND        CLEAR      2  -3  80 S6        30.66R
GRAND RAPIDS   CLEAR      5  -2  72 SW9       30.64R
KALAMAZOO      PTCLDY    -2  -6  83 S5        30.66R
MARSHALL       CLEAR     -9 -13  83 CALM      30.65R
MUSKEGON       PTCLDY    15   6  67 SW9       30.64R
$$
MIZ016>042-280900-
NORTHERN LOWER MICHIGAN

CITY           SKY/WX    TMP DP  RH WIND       PRES   REMARKS
ALPENA         CLEAR      5  -2  72 SW7       30.55S
BEAVER ISLAND  CLEAR     11   5  76 SW8       30.52R
BELLAIRE       CLEAR      4   1  87 CALM      30.57R
CADILLAC       CLEAR     -9 -17  69 CALM      30.51R
CHARLEVOIX     CLEAR     10   2  71 CALM      30.57R
FRANKFORT      SUNNY     17   6  62 W9        30.57R
GAYLORD        CLEAR      1  -2  87 SW5       30.48R
GRAYLING       CLEAR    -12 -18  76 CALM      30.53R
HARBOR SPRINGS CLEAR      6   1  78 CALM      30.53S
HOUGHTON LAKE  CLEAR      2  -3  80 SW6       30.54R
MANISTEE       CLEAR     -4  -9  77 E3        30.58S
OSCODA         CLEAR      3  -3  75 SW9       30.58S
PELLSTON       CLEAR     11   1  64 SW6       30.52S
TRAVERSE CITY  CLEAR     -1  -6  79 CALM      30.55S
$$
MIZ007>008-015-280900-
EASTERN UPPER MICHIGAN

CITY           SKY/WX    TMP DP  RH WIND       PRES   REMARKS
KINROSS        CLEAR      3   1  92 SW6       30.48S
MACKINAC ISLAN CLEAR     10   2  71 SW9       30.50R
NEWBERRY       CLEAR      3  -3  74 SW7       30.47R
S. S. MARIE    PTCLDY    -4  -9  79 CALM      30.48F
$$
MIZ004>006-011>014-085-280900-
CENTRAL UPPER MICHIGAN

CITY           SKY/WX    TMP DP  RH WIND       PRES   REMARKS
MANISTIQUE     PTCLDY     8  -3  60 W7        30.50R
ESCANABA       CLEAR      3  -6  66 W7        30.53R
MENOMINEE      CLEAR      5  -6  61 W5        30.55R
SAWYER-GWINN   CLEAR      1  -8  65 W5        30.43R
$$
MIZ001>003-009>011-084-280900-
WESTERN UPPER MICHIGAN

CITY           SKY/WX    TMP DP  RH WIND       PRES   REMARKS
IRON MOUNTAIN  CLEAR     -5 -11  75 CALM      30.46R
HOUGHTON       CLEAR      9  -4  55 W16       30.39S WCI  -8
COPPER HARBOR    N/A     14  -2  49 VRB5      30.41R
IRONWOOD       CLEAR      3  -4  72 SW9       30.42S
$$

ABBREVIATIONS USED IN REMARKS
   TC - TEMPERATURE IN CELSIUS
  WCI - WIND CHILL INDEX
   HX - HEAT INDEX
  VSB - VISIBILITY



USA.gov is the U.S. government's official web portal to all federal, state and local government web resources and services.